| time (UTC) | temp C | wind direction | speed KPH | gust KPH | rain 1hr cm | rain 24hr cm | rain mn cm | humidity % | barometer mb |
| 20260508091016 | 16 | 270 | 1.6 | 6.4 | 0.00 | 0.74 | 0.03 | 77 | 1015.0 |
| 20260508090516 | 16 | 270 | 4.8 | 9.7 | 0.00 | 0.74 | 0.03 | 77 | 1015.0 |
| 20260508090017 | 16 | 0.0 | 1.6 | 0.00 | 0.74 | 0.03 | 77 | 1014.7 | |
| 20260508085516 | 16 | 0.0 | 3.2 | 0.00 | 0.74 | 0.03 | 77 | 1014.7 | |
| 20260508085017 | 16 | 0.0 | 3.2 | 0.00 | 0.74 | 0.03 | 77 | 1014.8 | |
| 20260508084536 | 16 | 0.0 | 3.2 | 0.00 | 0.74 | 0.03 | 77 | 1014.7 | |
| 20260508084057 | 16 | 315 | 1.6 | 3.2 | 0.00 | 0.74 | 0.03 | 77 | 1014.8 |
| 20260508083517 | 16 | 0.0 | 1.6 | 0.00 | 0.74 | 0.03 | 77 | 1014.7 | |
| 20260508083017 | 16 | 0.0 | 0.0 | 0.00 | 0.74 | 0.03 | 78 | 1014.7 | |
| 20260508082517 | 16 | 0.0 | 1.6 | 0.00 | 0.74 | 0.03 | 78 | 1014.5 | |
| 20260508082017 | 16 | 315 | 1.6 | 4.8 | 0.00 | 0.74 | 0.03 | 79 | 1014.6 |
| 20260508081516 | 16 | 0.0 | 3.2 | 0.00 | 0.74 | 0.03 | 79 | 1014.5 | |
| 20260508081016 | 15 | 315 | 1.6 | 3.2 | 0.00 | 0.74 | 0.03 | 80 | 1014.2 |
| 20260508080517 | 15 | 0.0 | 0.0 | 0.00 | 0.74 | 0.03 | 80 | 1014.2 | |
| 20260508080016 | 15 | 0.0 | 0.0 | 0.00 | 0.74 | 0.03 | 80 | 1014.3 | |
| 20260508075516 | 15 | 0.0 | 1.6 | 0.00 | 0.74 | 0.03 | 80 | 1014.4 | |
| 20260508075056 | 15 | 0.0 | 0.0 | 0.00 | 0.74 | 0.03 | 80 | 1014.3 | |
| 20260508074516 | 15 | 0.0 | 0.0 | 0.00 | 0.74 | 0.03 | 81 | 1014.2 | |
| 20260508074016 | 15 | 0.0 | 0.0 | 0.00 | 0.74 | 0.03 | 81 | 1014.1 | |
| 20260508073536 | 15 | 0.0 | 0.0 | 0.00 | 0.74 | 0.03 | 81 | 1014.0 | |
| 20260508073016 | 15 | 0.0 | 0.0 | 0.00 | 0.74 | 0.03 | 81 | 1014.0 | |
| 20260508072516 | 15 | 0.0 | 1.6 | 0.00 | 0.74 | 0.03 | 81 | 1013.9 | |
| 20260508072016 | 15 | 315 | 1.6 | 4.8 | 0.00 | 0.74 | 0.03 | 80 | 1013.9 |
| 20260508071516 | 15 | 315 | 1.6 | 4.8 | 0.00 | 0.74 | 0.03 | 79 | 1013.8 |
| 20260508071016 | 15 | 0.0 | 0.0 | 0.00 | 0.74 | 0.03 | 80 | 1013.8 | |
| 20260508070516 | 15 | 0.0 | 0.0 | 0.00 | 0.74 | 0.03 | 80 | 1013.8 | |
| 20260508070016 | 15 | 0.0 | 1.6 | 0.00 | 0.74 | 0.03 | 80 | 1013.8 | |
| 20260508065516 | 15 | 293 | 3.2 | 6.4 | 0.00 | 0.74 | 0.03 | 81 | 1013.7 |
| 20260508065016 | 14 | 293 | 4.8 | 8.0 | 0.00 | 0.74 | 0.03 | 81 | 1013.6 |
| 20260508064516 | 14 | 270 | 6.4 | 11.3 | 0.00 | 0.74 | 0.03 | 82 | 1013.6 |
| 20260508064016 | 14 | 270 | 8.0 | 11.3 | 0.00 | 0.74 | 0.03 | 82 | 1013.7 |
| 20260508063516 | 13 | 270 | 6.4 | 11.3 | 0.00 | 0.74 | 0.03 | 81 | 1013.5 |
| 20260508063016 | 13 | 270 | 8.0 | 11.3 | 0.00 | 0.74 | 0.03 | 81 | 1013.4 |
| 20260508062516 | 13 | 270 | 4.8 | 9.7 | 0.00 | 0.74 | 0.03 | 82 | 1013.4 |
| 20260508062016 | 13 | 270 | 4.8 | 6.4 | 0.00 | 0.74 | 0.03 | 82 | 1013.4 |
| 20260508061516 | 13 | 270 | 3.2 | 4.8 | 0.00 | 0.74 | 0.03 | 82 | 1013.3 |
| 20260508061016 | 13 | 293 | 1.6 | 4.8 | 0.00 | 0.74 | 0.03 | 82 | 1013.1 |
| 20260508060516 | 13 | 315 | 1.6 | 4.8 | 0.00 | 0.74 | 0.03 | 82 | 1013.0 |
| 20260508060016 | 13 | 315 | 4.8 | 8.0 | 0.00 | 0.74 | 0.03 | 83 | 1012.9 |
| 20260508055516 | 13 | 293 | 4.8 | 9.7 | 0.00 | 0.74 | 0.03 | 83 | 1012.9 |
| 20260508055016 | 13 | 270 | 4.8 | 9.7 | 0.00 | 0.74 | 0.03 | 83 | 1013.0 |
| 20260508054516 | 13 | 270 | 4.8 | 6.4 | 0.00 | 0.74 | 0.03 | 82 | 1013.1 |
| 20260508054016 | 13 | 270 | 6.4 | 11.3 | 0.00 | 0.74 | 0.03 | 82 | 1012.9 |
| 20260508053516 | 13 | 270 | 8.0 | 12.9 | 0.00 | 0.74 | 0.03 | 83 | 1013.1 |
| 20260508053016 | 13 | 270 | 9.7 | 12.9 | 0.00 | 0.74 | 0.03 | 83 | 1013.1 |
| 20260508052536 | 13 | 270 | 6.4 | 11.3 | 0.00 | 0.74 | 0.03 | 83 | 1013.0 |
| 20260508052016 | 13 | 270 | 4.8 | 9.7 | 0.00 | 0.74 | 0.03 | 83 | 1012.9 |
| 20260508051516 | 13 | 270 | 4.8 | 11.3 | 0.00 | 0.74 | 0.03 | 83 | 1012.8 |
| 20260508051016 | 13 | 270 | 6.4 | 11.3 | 0.00 | 0.74 | 0.03 | 83 | 1012.8 |
| 20260508050516 | 13 | 270 | 6.4 | 11.3 | 0.00 | 0.74 | 0.03 | 84 | 1012.8 |
| 20260508050016 | 13 | 270 | 6.4 | 11.3 | 0.00 | 0.74 | 0.03 | 84 | 1012.7 |
| 20260508045516 | 13 | 270 | 9.7 | 12.9 | 0.00 | 0.74 | 0.03 | 84 | 1012.6 |
| 20260508045016 | 13 | 270 | 6.4 | 12.9 | 0.00 | 0.74 | 0.03 | 84 | 1012.5 |
| 20260508044516 | 13 | 270 | 6.4 | 11.3 | 0.00 | 0.74 | 0.03 | 84 | 1012.5 |
| 20260508044016 | 13 | 270 | 8.0 | 14.5 | 0.00 | 0.74 | 0.03 | 84 | 1012.5 |
| 20260508043516 | 13 | 270 | 8.0 | 12.9 | 0.00 | 0.74 | 0.03 | 84 | 1012.6 |
| 20260508043016 | 13 | 270 | 11.3 | 16.1 | 0.00 | 0.74 | 0.03 | 83 | 1012.6 |
| 20260508042516 | 13 | 270 | 12.9 | 17.7 | 0.00 | 0.74 | 0.03 | 83 | 1012.6 |
| 20260508042016 | 13 | 270 | 9.7 | 16.1 | 0.00 | 0.74 | 0.03 | 83 | 1012.6 |
| 20260508041516 | 13 | 270 | 11.3 | 17.7 | 0.00 | 0.74 | 0.03 | 83 | 1012.5 |
| 20260508041016 | 13 | 270 | 12.9 | 17.7 | 0.00 | 0.74 | 0.03 | 83 | 1012.4 |
| 20260508040516 | 13 | 248 | 4.8 | 12.9 | 0.00 | 0.74 | 0.03 | 84 | 1012.3 |
| 20260508040016 | 13 | 270 | 4.8 | 9.7 | 0.00 | 0.74 | 0.03 | 84 | 1012.1 |
| 20260508035516 | 13 | 270 | 6.4 | 12.9 | 0.00 | 0.74 | 0.03 | 84 | 1012.0 |
| 20260508035036 | 13 | 270 | 6.4 | 12.9 | 0.00 | 0.74 | 0.03 | 84 | 1012.1 |
| 20260508034516 | 13 | 270 | 4.8 | 12.9 | 0.00 | 0.74 | 0.03 | 84 | 1012.1 |
| 20260508034016 | 13 | 270 | 4.8 | 11.3 | 0.00 | 0.74 | 0.03 | 84 | 1012.0 |
| 20260508033516 | 13 | 270 | 3.2 | 11.3 | 0.00 | 0.74 | 0.03 | 84 | 1012.0 |
| 20260508033016 | 13 | 270 | 6.4 | 14.5 | 0.00 | 0.74 | 0.03 | 84 | 1012.1 |
| 20260508032536 | 13 | 270 | 8.0 | 14.5 | 0.00 | 0.74 | 0.03 | 84 | 1012.3 |
| 20260508032036 | 13 | 270 | 9.7 | 14.5 | 0.00 | 0.74 | 0.03 | 85 | 1012.4 |
| 20260508031616 | 13 | 270 | 8.0 | 14.5 | 0.00 | 0.74 | 0.03 | 85 | 1012.5 |
| 20260508031016 | 13 | 270 | 8.0 | 14.5 | 0.00 | 0.74 | 0.03 | 85 | 1012.7 |
| 20260508030516 | 12 | 270 | 9.7 | 14.5 | 0.00 | 0.74 | 0.03 | 85 | 1012.7 |
| 20260508030017 | 12 | 270 | 9.7 | 17.7 | 0.00 | 0.74 | 0.03 | 85 | 1012.6 |
| 20260508025516 | 12 | 270 | 9.7 | 17.7 | 0.00 | 0.74 | 0.03 | 85 | 1012.6 |
| 20260508025036 | 12 | 270 | 11.3 | 17.7 | 0.00 | 0.74 | 0.03 | 85 | 1012.6 |
| 20260508024536 | 12 | 270 | 11.3 | 17.7 | 0.00 | 0.74 | 0.03 | 85 | 1012.6 |
| 20260508024016 | 12 | 270 | 14.5 | 20.9 | 0.00 | 0.74 | 0.03 | 86 | 1012.6 |
| 20260508023516 | 12 | 270 | 9.7 | 19.3 | 0.00 | 0.74 | 0.03 | 86 | 1012.7 |
| 20260508023036 | 12 | 270 | 11.3 | 16.1 | 0.00 | 0.74 | 0.03 | 86 | 1012.7 |
| 20260508022516 | 12 | 270 | 11.3 | 17.7 | 0.00 | 0.74 | 0.03 | 86 | 1012.7 |
| 20260508022016 | 12 | 270 | 9.7 | 14.5 | 0.00 | 0.74 | 0.03 | 86 | 1012.7 |
| 20260508021516 | 12 | 270 | 8.0 | 14.5 | 0.00 | 0.74 | 0.03 | 86 | 1012.7 |
| 20260508021036 | 12 | 270 | 9.7 | 14.5 | 0.00 | 0.74 | 0.03 | 86 | 1012.8 |
| 20260508020516 | 12 | 270 | 11.3 | 16.1 | 0.00 | 0.74 | 0.03 | 86 | 1012.9 |
| 20260508020016 | 12 | 270 | 12.9 | 16.1 | 0.00 | 0.74 | 0.03 | 86 | 1013.0 |
| 20260508015516 | 12 | 270 | 8.0 | 12.9 | 0.00 | 0.74 | 0.03 | 86 | 1013.0 |
| 20260508015016 | 12 | 270 | 4.8 | 11.3 | 0.00 | 0.74 | 0.03 | 86 | 1013.0 |
| 20260508014516 | 12 | 270 | 6.4 | 12.9 | 0.00 | 0.74 | 0.03 | 86 | 1013.0 |
| 20260508014016 | 12 | 293 | 8.0 | 12.9 | 0.00 | 0.74 | 0.03 | 86 | 1013.0 |
| 20260508013516 | 13 | 270 | 8.0 | 12.9 | 0.00 | 0.74 | 0.03 | 87 | 1013.0 |
| 20260508013016 | 13 | 293 | 6.4 | 12.9 | 0.00 | 0.74 | 0.03 | 87 | 1013.1 |
| 20260508012536 | 13 | 270 | 6.4 | 11.3 | 0.00 | 0.74 | 0.03 | 87 | 1013.0 |
| 20260508012016 | 12 | 270 | 6.4 | 12.9 | 0.00 | 0.74 | 0.03 | 87 | 1013.1 |
| 20260508011516 | 12 | 270 | 9.7 | 14.5 | 0.00 | 0.74 | 0.03 | 87 | 1013.2 |
| 20260508011015 | 12 | 270 | 9.7 | 14.5 | 0.00 | 0.74 | 0.03 | 87 | 1013.3 |
| 20260508010515 | 12 | 270 | 9.7 | 14.5 | 0.00 | 0.74 | 0.03 | 87 | 1013.4 |
| 20260508010016 | 12 | 270 | 11.3 | 14.5 | 0.00 | 0.74 | 0.03 | 87 | 1013.6 |
| 20260508005515 | 12 | 270 | 8.0 | 11.3 | 0.00 | 0.74 | 0.03 | 87 | 1013.7 |
| 20260508005016 | 13 | 270 | 9.7 | 14.5 | 0.00 | 0.74 | 0.03 | 87 | 1013.7 |
| 20260508004516 | 13 | 270 | 9.7 | 14.5 | 0.00 | 0.74 | 0.03 | 87 | 1013.8 |
| 20260508004015 | 13 | 270 | 9.7 | 12.9 | 0.00 | 0.74 | 0.03 | 87 | 1013.9 |
| 20260508003536 | 13 | 270 | 9.7 | 14.5 | 0.00 | 0.74 | 0.03 | 88 | 1013.9 |
| 20260508003015 | 13 | 270 | 9.7 | 12.9 | 0.00 | 0.74 | 0.03 | 88 | 1013.9 |
| 20260508002515 | 13 | 270 | 6.4 | 11.3 | 0.03 | 0.74 | 0.03 | 88 | 1014.1 |
| 20260508002016 | 13 | 270 | 8.0 | 12.9 | 0.03 | 0.74 | 0.03 | 88 | 1014.1 |
| 20260508001556 | 13 | 270 | 6.4 | 11.3 | 0.03 | 0.74 | 0.03 | 88 | 1014.2 |
| 20260508001016 | 13 | 270 | 4.8 | 6.4 | 0.03 | 0.74 | 0.03 | 88 | 1014.3 |
| 20260508000516 | 13 | 293 | 3.2 | 6.4 | 0.03 | 0.74 | 0.03 | 89 | 1014.4 |
| 20260508000015 | 13 | 293 | 4.8 | 8.0 | 0.03 | 0.74 | 0.03 | 89 | 1014.3 |
| 20260507235516 | 13 | 293 | 6.4 | 11.3 | 0.03 | 0.74 | 0.03 | 89 | 1014.3 |
| 20260507235016 | 13 | 270 | 6.4 | 11.3 | 0.03 | 0.74 | 0.03 | 89 | 1014.4 |
| 20260507234515 | 13 | 270 | 6.4 | 12.9 | 0.03 | 0.74 | 0.03 | 89 | 1014.4 |
| 20260507234016 | 13 | 270 | 8.0 | 12.9 | 0.03 | 0.74 | 0.03 | 89 | 1014.5 |
| 20260507233516 | 13 | 270 | 6.4 | 11.3 | 0.03 | 0.74 | 0.03 | 89 | 1014.5 |
| 20260507233015 | 13 | 270 | 4.8 | 11.3 | 0.03 | 0.74 | 0.03 | 89 | 1014.5 |
| 20260507232536 | 13 | 270 | 8.0 | 17.7 | 0.00 | 0.71 | 0.00 | 89 | 1014.5 |
| 20260507232016 | 13 | 293 | 12.9 | 17.7 | 0.00 | 0.71 | 0.00 | 89 | 1014.5 |
| 20260507231516 | 13 | 270 | 8.0 | 14.5 | 0.00 | 0.71 | 0.00 | 89 | 1014.6 |
| 20260507231015 | 13 | 270 | 4.8 | 11.3 | 0.00 | 0.71 | 0.00 | 89 | 1014.6 |
| 20260507230516 | 13 | 270 | 6.4 | 14.5 | 0.00 | 0.71 | 0.00 | 89 | 1014.5 |
| 20260507230015 | 13 | 270 | 8.0 | 12.9 | 0.00 | 0.71 | 0.00 | 89 | 1014.4 |
| 20260507225516 | 13 | 270 | 8.0 | 12.9 | 0.00 | 0.71 | 0.00 | 90 | 1014.5 |
| 20260507225015 | 13 | 270 | 8.0 | 14.5 | 0.00 | 0.71 | 0.00 | 90 | 1014.4 |
| 20260507224516 | 13 | 270 | 9.7 | 14.5 | 0.00 | 0.71 | 0.00 | 89 | 1014.4 |
| 20260507224015 | 13 | 270 | 6.4 | 11.3 | 0.00 | 0.71 | 0.00 | 89 | 1014.5 |
| 20260507223515 | 13 | 270 | 8.0 | 12.9 | 0.00 | 0.71 | 0.00 | 89 | 1014.4 |
| 20260507223015 | 13 | 270 | 4.8 | 9.7 | 0.00 | 0.71 | 0.00 | 89 | 1014.4 |
| 20260507222515 | 13 | 270 | 3.2 | 4.8 | 0.00 | 0.71 | 0.00 | 89 | 1014.3 |
| 20260507222015 | 13 | 293 | 3.2 | 4.8 | 0.00 | 0.71 | 0.00 | 89 | 1014.2 |
| 20260507221515 | 13 | 270 | 3.2 | 6.4 | 0.00 | 0.71 | 0.00 | 89 | 1014.1 |
| 20260507221035 | 13 | 270 | 4.8 | 9.7 | 0.00 | 0.71 | 0.00 | 89 | 1014.0 |
| 20260507220515 | 13 | 270 | 3.2 | 6.4 | 0.00 | 0.71 | 0.00 | 89 | 1014.0 |
| 20260507220015 | 14 | 270 | 3.2 | 4.8 | 0.00 | 0.71 | 0.71 | 89 | 1013.9 |
| 20260507215516 | 14 | 270 | 3.2 | 4.8 | 0.00 | 0.71 | 0.71 | 89 | 1013.9 |
| 20260507215016 | 14 | 0 | 3.2 | 6.4 | 0.00 | 0.71 | 0.71 | 89 | 1014.0 |
| 20260507214536 | 14 | 0 | 3.2 | 4.8 | 0.00 | 0.71 | 0.71 | 89 | 1014.0 |
| 20260507214016 | 14 | 0 | 3.2 | 4.8 | 0.00 | 0.71 | 0.71 | 89 | 1014.0 |
| 20260507213516 | 14 | 0 | 1.6 | 3.2 | 0.00 | 0.71 | 0.71 | 89 | 1014.0 |
| 20260507213016 | 14 | 0 | 1.6 | 3.2 | 0.00 | 0.71 | 0.71 | 89 | 1014.0 |
| 20260507212516 | 14 | 0 | 1.6 | 4.8 | 0.00 | 0.71 | 0.71 | 89 | 1014.0 |
| 20260507212016 | 14 | 23 | 3.2 | 4.8 | 0.00 | 0.71 | 0.71 | 89 | 1014.0 |
| 20260507211516 | 14 | 23 | 1.6 | 3.2 | 0.00 | 0.71 | 0.71 | 89 | 1014.0 |
| 20260507211016 | 14 | 23 | 1.6 | 3.2 | 0.00 | 0.71 | 0.71 | 89 | 1014.0 |
| 20260507210516 | 14 | 23 | 1.6 | 3.2 | 0.00 | 0.71 | 0.71 | 89 | 1014.0 |
| 20260507210016 | 14 | 23 | 1.6 | 3.2 | 0.00 | 0.71 | 0.71 | 89 | 1014.0 |
| 20260507205516 | 14 | 0.0 | 3.2 | 0.00 | 0.71 | 0.71 | 89 | 1014.0 | |
| 20260507205016 | 14 | 0.0 | 3.2 | 0.00 | 0.71 | 0.71 | 89 | 1014.0 | |
| 20260507204516 | 15 | 23 | 1.6 | 3.2 | 0.00 | 0.71 | 0.71 | 89 | 1014.0 |
| 20260507204016 | 15 | 0.0 | 1.6 | 0.00 | 0.71 | 0.71 | 89 | 1014.1 | |
| 20260507203536 | 14 | 0.0 | 0.0 | 0.00 | 0.71 | 0.71 | 89 | 1014.0 | |
| 20260507203016 | 14 | 0.0 | 0.0 | 0.00 | 0.71 | 0.71 | 89 | 1014.1 | |
| 20260507202516 | 14 | 0.0 | 3.2 | 0.00 | 0.71 | 0.71 | 89 | 1014.0 | |
| 20260507202016 | 14 | 0.0 | 0.0 | 0.00 | 0.71 | 0.71 | 89 | 1013.9 | |
| 20260507201516 | 14 | 0.0 | 3.2 | 0.00 | 0.71 | 0.71 | 89 | 1013.8 | |
| 20260507201016 | 14 | 0.0 | 0.0 | 0.00 | 0.71 | 0.71 | 89 | 1013.8 | |
| 20260507200516 | 14 | 0.0 | 4.8 | 0.00 | 0.71 | 0.71 | 89 | 1013.7 | |
| 20260507200016 | 14 | 0.0 | 4.8 | 0.00 | 0.71 | 0.71 | 89 | 1013.8 | |
| 20260507195516 | 14 | 23 | 1.6 | 4.8 | 0.00 | 0.71 | 0.71 | 89 | 1013.7 |
| 20260507195016 | 14 | 23 | 3.2 | 6.4 | 0.00 | 0.71 | 0.71 | 88 | 1013.5 |
| 20260507194536 | 14 | 23 | 3.2 | 6.4 | 0.00 | 0.71 | 0.71 | 88 | 1013.5 |
| 20260507194016 | 14 | 23 | 4.8 | 8.0 | 0.03 | 0.71 | 0.71 | 88 | 1013.4 |
| 20260507193536 | 14 | 23 | 3.2 | 8.0 | 0.03 | 0.71 | 0.71 | 88 | 1013.4 |
| 20260507193016 | 14 | 45 | 1.6 | 4.8 | 0.03 | 0.71 | 0.71 | 88 | 1013.2 |
| 20260507192516 | 14 | 45 | 1.6 | 8.0 | 0.05 | 0.71 | 0.71 | 88 | 1013.2 |
| 20260507192016 | 14 | 45 | 3.2 | 9.7 | 0.05 | 0.71 | 0.71 | 88 | 1013.2 |
| 20260507191516 | 14 | 0.0 | 4.8 | 0.05 | 0.71 | 0.71 | 88 | 1013.0 | |
| 20260507191036 | 14 | 68 | 1.6 | 6.4 | 0.08 | 0.71 | 0.71 | 87 | 1012.9 |
| 20260507190516 | 14 | 68 | 4.8 | 8.0 | 0.10 | 0.71 | 0.71 | 87 | 1012.7 |
| 20260507190016 | 14 | 45 | 3.2 | 11.3 | 0.13 | 0.71 | 0.71 | 87 | 1012.5 |
| 20260507185556 | 14 | 45 | 4.8 | 8.0 | 0.15 | 0.71 | 0.71 | 87 | 1012.5 |
| 20260507185016 | 14 | 23 | 1.6 | 8.0 | 0.15 | 0.71 | 0.71 | 86 | 1012.5 |
| 20260507184536 | 14 | 23 | 3.2 | 8.0 | 0.20 | 0.71 | 0.71 | 86 | 1012.6 |
| 20260507184016 | 14 | 23 | 1.6 | 11.3 | 0.20 | 0.71 | 0.71 | 86 | 1012.6 |
| 20260507183516 | 14 | 23 | 1.6 | 8.0 | 0.23 | 0.71 | 0.71 | 86 | 1012.6 |
| 20260507183016 | 14 | 0.0 | 4.8 | 0.23 | 0.71 | 0.71 | 86 | 1012.6 | |
| 20260507182516 | 14 | 0 | 1.6 | 6.4 | 0.23 | 0.69 | 0.69 | 86 | 1012.5 |
| 20260507182016 | 14 | 0.0 | 4.8 | 0.33 | 0.69 | 0.69 | 86 | 1012.4 | |
| 20260507181516 | 15 | 0.0 | 4.8 | 0.41 | 0.66 | 0.66 | 87 | 1012.3 | |
| 20260507181016 | 15 | 0 | 1.6 | 6.4 | 0.48 | 0.64 | 0.64 | 86 | 1012.3 |
| 20260507180516 | 15 | 0 | 3.2 | 8.0 | 0.61 | 0.61 | 0.61 | 87 | 1012.2 |
| 20260507180016 | 15 | 338 | 1.6 | 6.4 | 0.61 | 0.61 | 0.61 | 86 | 1012.3 |
| 20260507175536 | 15 | 0 | 3.2 | 6.4 | 0.58 | 0.58 | 0.58 | 86 | 1012.3 |
| 20260507175016 | 15 | 338 | 1.6 | 6.4 | 0.56 | 0.56 | 0.56 | 86 | 1012.3 |
| 20260507174516 | 15 | 338 | 1.6 | 6.4 | 0.51 | 0.51 | 0.51 | 86 | 1012.3 |
| 20260507174036 | 15 | 315 | 3.2 | 6.4 | 0.51 | 0.51 | 0.51 | 86 | 1012.3 |
| 20260507173516 | 15 | 338 | 1.6 | 6.4 | 0.48 | 0.48 | 0.48 | 86 | 1012.3 |
| 20260507173016 | 15 | 315 | 4.8 | 6.4 | 0.46 | 0.46 | 0.46 | 85 | 1012.3 |
| 20260507172516 | 15 | 315 | 6.4 | 12.9 | 0.43 | 0.43 | 0.43 | 85 | 1012.2 |
| 20260507172016 | 15 | 315 | 4.8 | 11.3 | 0.36 | 0.36 | 0.36 | 84 | 1012.4 |
| 20260507171516 | 15 | 315 | 8.0 | 16.1 | 0.25 | 0.25 | 0.25 | 84 | 1012.5 |
| 20260507171016 | 16 | 270 | 12.9 | 22.5 | 0.15 | 0.15 | 0.15 | 83 | 1012.5 |
| 20260507170516 | 16 | 270 | 20.9 | 32.2 | 0.03 | 0.03 | 0.03 | 82 | 1012.4 |
| 20260507170016 | 16 | 225 | 20.9 | 32.2 | 0.00 | 0.00 | 0.00 | 83 | 1012.2 |
| 20260507165516 | 16 | 225 | 12.9 | 24.1 | 0.00 | 0.00 | 0.00 | 83 | 1012.1 |
| 20260507165015 | 16 | 180 | 9.7 | 16.1 | 0.00 | 0.00 | 0.00 | 83 | 1011.6 |
| 20260507164516 | 16 | 113 | 12.9 | 19.3 | 0.00 | 0.00 | 0.00 | 82 | 1011.4 |
| 20260507164016 | 17 | 135 | 9.7 | 19.3 | 0.00 | 0.00 | 0.00 | 82 | 1011.3 |
| 20260507163516 | 17 | 135 | 11.3 | 20.9 | 0.00 | 0.00 | 0.00 | 82 | 1011.3 |
| 20260507163016 | 17 | 90 | 11.3 | 22.5 | 0.00 | 0.00 | 0.00 | 82 | 1011.2 |
| 20260507162516 | 17 | 90 | 12.9 | 24.1 | 0.00 | 0.00 | 0.00 | 82 | 1011.2 |
| 20260507162015 | 17 | 90 | 9.7 | 17.7 | 0.00 | 0.00 | 0.00 | 80 | 1011.2 |
| 20260507161515 | 18 | 90 | 16.1 | 22.5 | 0.00 | 0.00 | 0.00 | 78 | 1011.3 |
| 20260507161016 | 18 | 90 | 16.1 | 22.5 | 0.00 | 0.00 | 0.00 | 77 | 1011.3 |
| 20260507160516 | 18 | 68 | 16.1 | 24.1 | 0.00 | 0.00 | 0.00 | 77 | 1011.2 |
| 20260507160016 | 18 | 90 | 11.3 | 19.3 | 0.00 | 0.00 | 0.00 | 78 | 1011.2 |
| 20260507155516 | 18 | 90 | 14.5 | 20.9 | 0.00 | 0.00 | 0.00 | 78 | 1011.2 |
| 20260507155015 | 18 | 90 | 11.3 | 19.3 | 0.00 | 0.00 | 0.00 | 78 | 1011.2 |
| 20260507154516 | 18 | 90 | 11.3 | 20.9 | 0.00 | 0.00 | 0.00 | 77 | 1011.2 |
| 20260507154016 | 18 | 90 | 12.9 | 19.3 | 0.00 | 0.00 | 0.00 | 77 | 1011.1 |
| 20260507153516 | 18 | 68 | 11.3 | 17.7 | 0.00 | 0.00 | 0.00 | 76 | 1011.1 |
| 20260507153016 | 18 | 90 | 8.0 | 14.5 | 0.00 | 0.00 | 0.00 | 78 | 1011.2 |
| 20260507152515 | 18 | 90 | 6.4 | 12.9 | 0.00 | 0.00 | 0.00 | 78 | 1011.3 |
| 20260507152015 | 18 | 113 | 6.4 | 12.9 | 0.00 | 0.00 | 0.00 | 78 | 1011.3 |
| 20260507151515 | 18 | 113 | 3.2 | 11.3 | 0.00 | 0.00 | 0.00 | 79 | 1011.2 |
| 20260507151035 | 18 | 90 | 4.8 | 14.5 | 0.00 | 0.00 | 0.00 | 79 | 1011.2 |
| 20260507150516 | 18 | 68 | 11.3 | 16.1 | 0.00 | 0.00 | 0.00 | 78 | 1011.3 |
| 20260507150016 | 18 | 90 | 9.7 | 16.1 | 0.00 | 0.00 | 0.00 | 78 | 1011.2 |
| 20260507145515 | 18 | 90 | 9.7 | 16.1 | 0.00 | 0.00 | 0.00 | 77 | 1011.2 |
| 20260507145016 | 18 | 90 | 8.0 | 14.5 | 0.00 | 0.00 | 0.00 | 77 | 1011.2 |
| 20260507144536 | 18 | 90 | 11.3 | 17.7 | 0.00 | 0.00 | 0.00 | 76 | 1011.2 |
| 20260507144035 | 18 | 68 | 16.1 | 20.9 | 0.00 | 0.00 | 0.00 | 76 | 1011.1 |
| 20260507143515 | 18 | 90 | 16.1 | 25.7 | 0.00 | 0.00 | 0.00 | 74 | 1011.0 |
| 20260507143036 | 18 | 90 | 14.5 | 22.5 | 0.00 | 0.00 | 0.00 | 73 | 1011.0 |
| 20260507142515 | 18 | 90 | 19.3 | 24.1 | 0.00 | 0.00 | 0.00 | 72 | 1011.0 |
| 20260507142036 | 18 | 90 | 20.9 | 27.4 | 0.00 | 0.00 | 0.00 | 68 | 1011.0 |
| 20260507141516 | 19 | 90 | 17.7 | 29.0 | 0.00 | 0.00 | 0.00 | 70 | 1010.9 |
| 20260507141035 | 18 | 90 | 17.7 | 29.0 | 0.00 | 0.00 | 0.00 | 70 | 1010.9 |
| 20260507140515 | 18 | 90 | 17.7 | 24.1 | 0.00 | 0.00 | 0.00 | 69 | 1011.0 |
| 20260507140016 | 18 | 90 | 16.1 | 27.4 | 0.00 | 0.00 | 0.00 | 70 | 1011.0 |
| 20260507135516 | 18 | 90 | 20.9 | 29.0 | 0.00 | 0.00 | 0.00 | 71 | 1011.0 |
| 20260507135016 | 18 | 90 | 20.9 | 30.6 | 0.00 | 0.00 | 0.00 | 71 | 1011.1 |
| 20260507134516 | 18 | 90 | 19.3 | 27.4 | 0.00 | 0.00 | 0.00 | 70 | 1011.0 |
| 20260507134016 | 18 | 68 | 20.9 | 30.6 | 0.00 | 0.00 | 0.00 | 69 | 1011.1 |
| 20260507133516 | 18 | 90 | 20.9 | 30.6 | 0.00 | 0.00 | 0.00 | 68 | 1011.1 |
| 20260507133035 | 19 | 90 | 24.1 | 33.8 | 0.00 | 0.00 | 0.00 | 67 | 1011.2 |
| 20260507132515 | 19 | 90 | 22.5 | 32.2 | 0.00 | 0.00 | 0.00 | 65 | 1011.2 |
| 20260507132036 | 19 | 90 | 19.3 | 29.0 | 0.00 | 0.00 | 0.00 | 64 | 1011.3 |
| 20260507131515 | 19 | 68 | 22.5 | 30.6 | 0.00 | 0.00 | 0.00 | 64 | 1011.3 |
| 20260507131015 | 19 | 90 | 19.3 | 32.2 | 0.00 | 0.00 | 0.00 | 63 | 1011.4 |
| 20260507130515 | 20 | 68 | 25.7 | 33.8 | 0.00 | 0.00 | 0.00 | 64 | 1011.4 |
| 20260507130015 | 20 | 90 | 22.5 | 32.2 | 0.00 | 0.00 | 0.00 | 63 | 1011.5 |
| 20260507125515 | 20 | 68 | 29.0 | 38.6 | 0.00 | 0.00 | 0.00 | 64 | 1011.6 |
| 20260507125015 | 20 | 90 | 25.7 | 32.2 | 0.00 | 0.00 | 0.00 | 63 | 1011.6 |
| 20260507124515 | 20 | 68 | 25.7 | 37.0 | 0.00 | 0.00 | 0.00 | 63 | 1011.7 |
| 20260507124015 | 20 | 68 | 22.5 | 33.8 | 0.00 | 0.00 | 0.00 | 63 | 1011.6 |
| 20260507123535 | 20 | 68 | 22.5 | 33.8 | 0.00 | 0.00 | 0.00 | 62 | 1011.6 |
| 20260507123035 | 20 | 68 | 20.9 | 32.2 | 0.00 | 0.00 | 0.00 | 63 | 1011.7 |
| 20260507122535 | 20 | 68 | 22.5 | 32.2 | 0.00 | 0.00 | 0.00 | 63 | 1011.8 |
| 20260507122015 | 20 | 90 | 20.9 | 32.2 | 0.00 | 0.00 | 0.00 | 63 | 1011.9 |
| 20260507121515 | 20 | 90 | 27.4 | 35.4 | 0.00 | 0.00 | 0.00 | 65 | 1011.9 |
| 20260507121015 | 20 | 90 | 25.7 | 35.4 | 0.00 | 0.00 | 0.00 | 65 | 1011.9 |
| 20260507120515 | 20 | 90 | 22.5 | 37.0 | 0.00 | 0.00 | 0.00 | 64 | 1012.0 |
| 20260507120015 | 20 | 90 | 19.3 | 27.4 | 0.00 | 0.00 | 0.00 | 64 | 1011.9 |
| 20260507115515 | 20 | 68 | 22.5 | 33.8 | 0.00 | 0.00 | 0.00 | 63 | 1011.9 |
| 20260507115015 | 20 | 90 | 22.5 | 33.8 | 0.00 | 0.00 | 0.00 | 63 | 1011.9 |
| 20260507114515 | 20 | 68 | 24.1 | 33.8 | 0.00 | 0.00 | 0.00 | 61 | 1011.9 |
| 20260507114035 | 20 | 68 | 22.5 | 33.8 | 0.00 | 0.00 | 0.00 | 62 | 1012.0 |
| 20260507113517 | 20 | 68 | 17.7 | 29.0 | 0.00 | 0.00 | 0.00 | 63 | 1012.0 |
| 20260507113017 | 20 | 68 | 17.7 | 30.6 | 0.00 | 0.00 | 0.00 | 64 | 1012.1 |
| 20260507112517 | 20 | 68 | 19.3 | 33.8 | 0.00 | 0.00 | 0.00 | 66 | 1012.2 |
| 20260507112017 | 20 | 45 | 17.7 | 30.6 | 0.00 | 0.00 | 0.00 | 65 | 1012.4 |
| 20260507111515 | 20 | 90 | 19.3 | 32.2 | 0.00 | 0.00 | 0.00 | 65 | 1012.4 |
| 20260507111037 | 19 | 68 | 17.7 | 32.2 | 0.00 | 0.00 | 0.00 | 64 | 1012.5 |
| 20260507110517 | 20 | 45 | 19.3 | 33.8 | 0.00 | 0.00 | 0.00 | 64 | 1012.5 |
| 20260507110057 | 20 | 68 | 22.5 | 35.4 | 0.00 | 0.00 | 0.00 | 64 | 1012.5 |
| 20260507105517 | 19 | 68 | 20.9 | 32.2 | 0.00 | 0.00 | 0.00 | 65 | 1012.5 |
| 20260507105017 | 19 | 68 | 22.5 | 35.4 | 0.00 | 0.00 | 0.00 | 66 | 1012.6 |
| 20260507104517 | 19 | 68 | 16.1 | 30.6 | 0.00 | 0.00 | 0.00 | 66 | 1012.6 |
| 20260507104017 | 19 | 68 | 22.5 | 35.4 | 0.00 | 0.00 | 0.00 | 67 | 1012.5 |
| 20260507103517 | 19 | 68 | 25.7 | 37.0 | 0.00 | 0.00 | 0.00 | 67 | 1012.7 |
| 20260507103017 | 19 | 68 | 19.3 | 33.8 | 0.00 | 0.00 | 0.00 | 67 | 1012.7 |
| 20260507102517 | 19 | 68 | 19.3 | 30.6 | 0.00 | 0.00 | 0.00 | 68 | 1012.7 |
| 20260507102017 | 19 | 68 | 19.3 | 33.8 | 0.00 | 0.00 | 0.00 | 69 | 1012.7 |
| 20260507101517 | 19 | 68 | 19.3 | 33.8 | 0.00 | 0.00 | 0.00 | 68 | 1012.6 |
| 20260507101017 | 19 | 68 | 19.3 | 32.2 | 0.00 | 0.00 | 0.00 | 68 | 1012.6 |
| 20260507100517 | 19 | 68 | 16.1 | 37.0 | 0.00 | 0.00 | 0.00 | 69 | 1012.6 |
| 20260507100017 | 19 | 68 | 20.9 | 37.0 | 0.00 | 0.00 | 0.00 | 68 | 1012.7 |
| 20260507095517 | 18 | 68 | 20.9 | 33.8 | 0.00 | 0.00 | 0.00 | 69 | 1012.7 |
| 20260507095017 | 19 | 68 | 20.9 | 33.8 | 0.00 | 0.00 | 0.00 | 69 | 1012.7 |
| 20260507094517 | 18 | 68 | 19.3 | 33.8 | 0.00 | 0.00 | 0.00 | 70 | 1012.8 |
| 20260507094017 | 18 | 68 | 16.1 | 32.2 | 0.00 | 0.00 | 0.00 | 70 | 1012.8 |
| 20260507093537 | 19 | 68 | 16.1 | 27.4 | 0.00 | 0.00 | 0.00 | 70 | 1012.9 |
| 20260507093037 | 19 | 68 | 14.5 | 32.2 | 0.00 | 0.00 | 0.00 | 70 | 1012.9 |
| 20260507092517 | 18 | 45 | 17.7 | 30.6 | 0.00 | 0.00 | 0.00 | 70 | 1012.9 |
| 20260507092017 | 19 | 90 | 14.5 | 25.7 | 0.00 | 0.00 | 0.00 | 69 | 1012.9 |
| 20260507091517 | 19 | 68 | 16.1 | 25.7 | 0.00 | 0.00 | 0.00 | 69 | 1013.1 |